Location: Newark
(5.0949°S, 42.8042°W)
Time: 12:31:28
(UTC+00:00)

Hubble Space Telescope - Pass Details

Date: 25 September 2019
Orbit: 536 x 540 km, 28.5° (Epoch: 16 October)

Event Time Altitude Azimuth Distance (km) Brightness Sun altitude
Rises 22:11:00 0° 277° (W) 2,674 5.8 -21.8°
Reaches altitude 10° 22:14:46 10° 311° (NW) 1,779 4.0 -22.8°
Maximum altitude 22:16:06 11° 330° (NNW) 1,692 3.6 -23.1°
Drops below altitude 10° 22:17:27 10° 350° (N) 1,776 3.5 -23.4°
Enters shadow 22:18:00 - 357° (N) 1,856 3.5 -23.6°
